Temperature
14 14 14 14 14 14 14 14 14 14 14 14 14 14 15 15 15 15 16 16 16 16 16 16 16 16 16 16 16 16 16 16 16 16 17 17 16 16
14 14 14 14 14 14 14 14 14 14 14 14 14 14 14 14 15 15 15 15 16 16 16 16 16 16 16 16 16 16 16 16 16 16 16 16 16 16
14 14 14 14 14 14 14 14 14 14 14 14 14 14 14 14 15 15 15 15 15 15 16 16 16 16 16 16 16 16 16 16 16 16 16 16 16 16
14 14 14 14 14 14 14 14 14 14 14 14 14 14 14 14 14 14 14 14 15 15 15 15 15 16 16 16 16 16 15 15 15 16 16 16 16 15
14 14 14 14 14 14 14 14 14 14 14 14 14 14 14 14 14 14 14 14 14 14 15 15 15 15 15 15 15 15 15 15 15 15 15 15 15 15
14 14 14 14 14 14 14 14 14 14 14 14 14 14 14 14 14 14 14 14 14 14 14 14 14 14 14 15 15 15 15 15 15 15 15 15 15 15
15 15 14 14 14 14 14 14 14 13 13 13 13 13 14 13 14 14 14 14 14 14 14 14 14 14 14 14 14 14 14 14 14 14 14 14 14 14
15 15 15 15 14 14 14 14 14 13 13 13 13 13 14 14 14 14 13 13 13 13 13 13 13 13 13 14 14 14 14 14 14 14 14 14 14 14
15 15 15 15 15 14 14 14 14 14 14 14 13 14 14 14 14 13 13 13 13 13 13 13 13 13 13 13 13 13 13 13 13 13 13 13 13 13
15 15 15 15 15 14 14 14 14 14 14 14 14 14 14 14 13 13 13 13 13 13 13 13 13 13 13 13 13 13 13 13 13 13 13 13 13 13
14 14 15 15 15 14 14 14 14 14 14 14 14 13 13 13 13 13 13 13 13 13 13 13 13 13 13 13 13 12 12 13 13 13 13 12 12 12
14 14 14 14 15 14 14 14 14 14 13 13 13 13 13 13 13 13 13 13 13 12 12 13 13 12 12 12 12 12 12 12 12 12 12 12 12 12
13 13 14 14 14 14 14 14 14 14 13 13 13 13 13 13 13 13 13 13 12 12 12 12 12 12 12 12 12 12 12 12 12 12 11 11 11 11
12 13 13 14 14 14 14 14 14 13 13 13 13 13 13 13 13 13 13 12 12 12 12 12 12 12 12 12 11 11 11 11 11 11 11 11 11 10
12 12 12 13 13 13 13 13 13 13 13 13 13 13 13 13 12 12 12 12 12 12 12 12 12 12 12 11 11 11 11 11 11 11 10 10 10 10
11 12 12 12 13 13 13 13 13 13 13 13 13 13 13 12 12 12 12 12 12 11 11 11 11 11 11 11 11 11 11 10 10 10 10 10 10 10
10 10 11 12 12 12 12 12 12 12 12 12 12 12 12 12 12 12 12 12 11 11 11 11 11 11 11 11 11 10 10 10 10 10 9 9 9 9
9 9 10 10 11 11 11 11 12 12 12 12 12 12 12 12 12 12 12 11 11 11 11 11 11 10 10 10 10 10 10 10 9 9 9 9 9 9
9 9 9 9 10 10 10 11 11 11 11 12 12 12 11 11 11 11 11 11 11 11 11 11 10 10 10 10 10 10 10 9 9 9 9 9 9 8
8 8 8 9 9 9 10 10 10 11 11 11 11 11 11 11 11 11 11 11 11 11 10 10 10 10 10 10 10 10 9 9 9 9 9 8 8 8
7 8 8 8 8 9 9 9 10 10 10 10 11 11 11 11 11 11 10 10 10 10 10 10 10 10 10 9 9 9 9 9 8 8 8 8 8 7
7 7 7 7 8 8 8 9 9 9 9 10 10 10 10 11 11 10 10 10 10 10 10 10 10 9 9 9 9 9 8 8 8 7 7 7 7 7
6 6 6 6 7 7 8 8 8 8 9 9 9 10 10 10 10 10 10 10 10 9 9 9 9 9 9 9 8 8 8 7 7 7 7 7 6 6
Wind_Speed
2 2 1 1 1 1 0 1 2 1 1 1 1 1 3 4 5 5 6 7 8 8 8 8 8 8 7 7 6 7 8 8 8 8 8 8 8 8
1 1 1 1 1 1 1 0 1 1 1 1 1 2 3 4 5 5 7 9 8 9 9 8 8 8 7 7 7 7 7 7 7 7 7 7 7 7
2 2 1 0 0 1 1 0 0 1 1 1 1 2 3 3 2 4 6 6 6 9 9 9 9 9 8 7 7 8 8 7 7 6 6 6 6 6
3 2 1 1 1 1 1 1 1 1 2 2 1 1 2 3 3 3 3 5 6 8 10 10 9 9 8 8 8 7 8 7 7 6 6 6 6 6
4 3 2 1 2 2 2 1 1 1 1 2 2 1 1 2 2 2 1 2 4 7 10 9 9 9 9 8 7 7 7 7 7 6 6 5 5 5
5 4 4 3 2 2 2 2 1 1 1 1 1 2 1 1 2 2 1 1 2 4 6 8 10 10 9 8 8 8 7 7 7 6 5 5 4 4
5 5 5 5 4 2 1 0 1 1 2 2 2 2 2 2 2 2 2 2 1 2 3 4 5 5 6 8 8 8 8 7 7 6 5 5 4 4
6 5 6 7 7 7 5 4 2 2 2 2 3 3 4 3 3 3 2 2 2 2 2 2 4 4 5 6 9 10 9 8 7 6 6 5 4 4
6 6 5 7 9 7 8 8 7 7 5 3 3 4 4 4 4 4 3 3 3 3 2 2 2 3 4 7 12 11 10 9 8 7 6 5 4 3
8 8 7 6 8 8 7 7 7 7 8 6 4 3 2 3 4 5 5 3 2 2 3 2 2 3 4 6 11 12 11 10 9 7 6 5 4 3
9 9 9 7 11 13 8 7 7 7 8 8 7 6 5 4 3 2 2 3 3 3 3 3 3 3 3 3 7 11 12 11 9 8 6 5 3 2
8 9 12 11 11 13 9 8 8 7 6 6 6 6 6 5 6 5 4 4 3 3 3 3 3 3 2 3 4 7 8 8 9 7 6 5 3 2
7 7 7 9 10 14 12 9 9 7 6 7 7 7 6 6 6 5 4 4 4 3 4 4 3 3 3 3 3 4 5 5 6 5 7 6 4 4
8 8 7 9 9 11 11 11 12 8 5 5 5 6 6 7 7 7 6 5 4 4 4 4 3 4 3 3 3 3 4 5 5 4 6 6 5 4
9 12 13 12 10 9 12 14 11 7 6 6 7 7 7 7 7 6 6 5 4 4 5 4 4 3 4 4 3 3 3 3 4 4 4 4 3 3
9 12 14 13 11 10 10 10 8 8 8 8 7 7 6 6 6 6 6 6 4 3 3 4 4 5 4 3 4 3 3 4 3 4 4 2 2 3
10 9 8 6 6 6 7 8 8 8 9 8 7 7 6 7 6 6 6 6 6 6 5 3 4 4 4 4 4 4 3 3 3 4 4 2 1 2
11 8 8 8 8 8 8 7 8 9 9 9 8 8 8 8 7 6 6 7 7 7 7 6 5 3 1 1 1 4 3 3 3 4 4 3 1 0
9 8 9 8 8 8 8 8 8 9 9 9 9 9 8 8 8 8 8 8 8 7 7 7 7 6 6 6 3 1 4 4 3 3 3 3 3 2
7 8 8 8 8 7 7 7 7 7 8 9 9 9 9 9 9 9 9 9 8 8 7 7 8 8 9 8 5 2 3 5 4 4 2 2 1 1
8 8 8 8 8 8 7 7 8 7 8 8 9 10 10 9 9 9 9 12 9 8 9 9 9 10 5 5 4 2 2 3 5 5 4 3 1 1
8 8 8 9 8 8 7 7 7 7 8 8 8 8 9 9 10 11 10 9 9 8 8 6 7 6 5 6 6 5 4 3 2 5 6 7 5 4
8 8 8 9 8 7 7 7 9 8 7 8 8 8 8 8 9 10 10 10 9 8 8 7 6 5 5 6 6 5 6 6 4 3 1 6 8 8
Wind_Direction
358 355 333 302 301 335 13 123 144 164 198 192 141 167 152 141 161 170 158 167 170 174 180 186 188 188 190 189 187 188 190 192 194 195 199 203 209 211
242 271 315 326 10 357 327 48 119 162 194 204 201 199 176 165 177 172 168 173 182 183 185 189 191 190 187 187 189 189 188 188 188 192 197 199 204 211
287 234 217 193 159 289 304 280 161 142 181 232 197 176 168 157 155 169 170 173 179 188 187 189 190 188 187 187 187 185 186 184 182 186 194 201 206 209
282 278 233 183 178 243 254 261 213 198 184 207 208 182 181 172 170 188 189 182 172 182 182 184 184 184 185 186 186 185 181 180 182 188 196 204 211 214
240 248 237 196 199 218 218 238 230 225 185 188 215 201 201 179 171 198 193 176 172 172 176 182 183 182 183 185 187 189 187 187 188 192 197 202 210 218
219 215 218 215 206 210 213 221 221 234 212 205 213 197 197 195 164 183 195 201 186 172 171 176 184 186 186 186 187 186 186 188 188 188 193 201 212 221
233 218 208 187 162 160 163 224 231 215 220 207 214 203 201 182 193 203 194 196 206 167 158 171 167 173 180 182 180 178 175 175 177 180 187 195 207 218
253 232 205 191 192 192 193 196 192 214 224 212 212 212 214 201 195 194 179 168 222 208 152 189 165 171 174 175 178 175 172 171 172 174 179 186 196 205
270 259 237 207 191 193 208 217 225 226 220 218 230 228 209 196 184 193 194 187 206 197 148 203 180 162 161 168 169 168 167 167 169 171 176 180 187 200
257 258 249 224 198 193 198 207 214 218 222 220 227 237 220 183 175 186 191 189 194 187 154 181 189 165 142 147 163 164 166 168 170 171 171 172 176 191
252 252 247 234 211 200 200 209 212 218 216 204 195 190 178 165 159 149 172 167 197 211 184 170 181 155 140 152 166 167 167 169 170 169 170 172 175 183
266 256 248 238 220 201 200 208 218 217 198 196 200 205 200 201 196 188 186 184 193 202 197 168 176 148 148 159 161 172 171 173 172 171 169 168 165 147
287 272 258 243 226 211 206 211 216 211 201 199 200 203 201 201 201 205 199 187 195 207 188 159 168 161 158 161 166 178 177 171 174 182 183 174 164 151
295 290 283 265 245 230 222 225 218 211 210 209 206 205 203 201 198 195 196 190 184 184 178 156 162 165 156 161 175 170 173 168 161 163 171 172 168 158
292 296 297 284 260 239 230 228 220 212 209 217 219 217 208 197 183 180 182 174 171 183 184 172 157 162 157 169 168 161 164 173 158 153 151 153 168 166
297 299 292 274 253 239 235 227 221 215 211 217 217 216 202 190 185 177 177 173 173 195 188 168 155 157 166 165 159 166 162 165 161 151 142 141 142 143
303 294 284 271 252 242 232 223 215 215 220 218 216 214 204 195 192 180 174 175 185 189 189 183 154 137 135 149 164 175 169 164 163 154 137 139 167 158
299 282 273 261 254 246 237 232 226 219 216 213 214 213 206 199 196 189 184 187 192 191 186 177 159 136 106 18 161 173 168 165 157 144 139 148 199 225
287 269 264 260 257 255 248 239 236 231 219 215 213 210 204 199 195 195 194 193 196 192 185 177 174 172 185 208 235 196 166 161 145 144 152 154 178 192
280 276 271 268 260 259 259 254 248 242 231 223 217 210 204 200 198 196 196 197 196 190 184 181 184 186 192 192 182 194 182 158 155 159 158 120 116 130
289 285 281 277 268 262 260 259 252 248 241 230 222 214 208 201 200 199 197 196 195 191 190 193 190 173 153 129 134 160 190 171 148 154 150 133 144 200
288 289 291 287 278 270 266 264 261 252 245 239 229 219 213 205 200 196 195 195 196 194 189 177 162 157 156 171 179 172 163 158 118 117 138 154 158 183
288 286 287 291 286 280 273 268 266 259 249 242 232 222 216 213 203 196 193 191 189 183 171 164 164 164 170 172 171 166 160 162 159 151 224 209 199 201
Height
1511 1511 1510 1510 1509 1509 1509 1510 1511 1511 1511 1512 1513 1514 1515 1516 1517 1518 1520 1522 1524 1525 1527 1529 1531 1533 1535 1536 1538 1540 1542 1544 1546 1547 1549 1551 1553 1554
1511 1510 1509 1509 1508 1508 1509 1509 1509 1510 1510 1511 1512 1513 1514 1514 1515 1516 1518 1520 1521 1523 1525 1527 1528 1530 1532 1533 1535 1537 1538 1541 1542 1544 1546 1548 1549 1551
1510 1509 1509 1508 1508 1508 1508 1508 1508 1509 1509 1510 1511 1512 1513 1513 1514 1515 1516 1517 1519 1520 1522 1524 1525 1527 1529 1530 1532 1533 1535 1537 1539 1540 1542 1544 1546 1547
1509 1509 1508 1508 1507 1507 1507 1507 1507 1507 1508 1508 1509 1510 1511 1512 1512 1513 1514 1515 1516 1517 1519 1520 1522 1524 1525 1527 1528 1530 1531 1533 1535 1537 1538 1540 1542 1543
1508 1508 1507 1507 1506 1506 1505 1505 1506 1506 1506 1507 1508 1508 1509 1510 1511 1512 1512 1513 1514 1515 1516 1518 1519 1520 1522 1524 1525 1526 1528 1530 1531 1533 1534 1536 1537 1539
1507 1506 1505 1505 1505 1504 1504 1504 1504 1504 1505 1505 1505 1506 1507 1508 1509 1509 1510 1511 1512 1513 1514 1515 1516 1518 1519 1520 1522 1523 1524 1526 1527 1529 1531 1532 1534 1535
1504 1504 1503 1503 1503 1503 1502 1502 1502 1502 1503 1503 1504 1505 1505 1505 1506 1507 1508 1509 1510 1511 1512 1513 1514 1515 1516 1517 1519 1520 1521 1523 1524 1526 1527 1528 1530 1531
1502 1501 1501 1500 1500 1500 1500 1500 1500 1500 1501 1501 1501 1502 1502 1503 1504 1505 1506 1506 1507 1509 1510 1511 1512 1513 1514 1515 1516 1517 1518 1519 1521 1522 1524 1525 1526 1527
1497 1498 1498 1497 1497 1497 1497 1497 1497 1498 1498 1499 1499 1499 1499 1500 1501 1502 1502 1503 1504 1506 1507 1508 1509 1510 1511 1512 1514 1515 1516 1517 1518 1519 1520 1521 1522 1523
1493 1493 1494 1494 1493 1493 1493 1493 1493 1494 1494 1495 1495 1496 1496 1497 1498 1499 1499 1500 1502 1503 1504 1505 1506 1507 1508 1510 1511 1512 1513 1514 1515 1516 1517 1518 1518 1519
1487 1488 1489 1489 1489 1489 1489 1489 1489 1490 1491 1491 1492 1492 1493 1494 1494 1495 1496 1497 1498 1499 1501 1502 1503 1504 1505 1507 1508 1509 1510 1511 1512 1513 1513 1514 1515 1516
1481 1482 1483 1484 1484 1484 1484 1485 1485 1485 1486 1487 1487 1488 1489 1489 1490 1491 1492 1493 1494 1495 1496 1498 1499 1501 1502 1503 1505 1506 1507 1508 1508 1509 1510 1511 1512 1512
1475 1475 1476 1477 1478 1478 1479 1479 1479 1481 1481 1482 1482 1483 1484 1484 1485 1486 1488 1489 1490 1491 1492 1494 1495 1497 1499 1500 1501 1502 1503 1504 1505 1506 1507 1508 1508 1509
1469 1468 1469 1470 1470 1471 1471 1472 1474 1475 1476 1476 1477 1477 1478 1479 1480 1481 1483 1484 1486 1487 1488 1490 1491 1493 1494 1496 1497 1498 1500 1501 1502 1502 1503 1504 1505 1506
1462 1462 1462 1462 1462 1463 1464 1465 1466 1467 1468 1469 1470 1471 1472 1474 1475 1477 1478 1479 1481 1482 1484 1486 1487 1489 1490 1492 1493 1494 1496 1497 1498 1499 1500 1501 1501 1502
1455 1454 1454 1454 1454 1455 1455 1456 1458 1459 1460 1461 1462 1464 1467 1468 1469 1471 1472 1474 1475 1477 1479 1481 1483 1484 1486 1487 1489 1490 1492 1493 1494 1495 1496 1497 1498 1498
1449 1446 1445 1445 1445 1446 1447 1448 1449 1450 1452 1453 1455 1457 1459 1461 1462 1464 1466 1468 1469 1471 1473 1475 1478 1480 1482 1483 1484 1486 1487 1489 1490 1491 1492 1493 1494 1494
1443 1439 1438 1437 1437 1438 1438 1439 1440 1441 1442 1444 1446 1448 1450 1452 1455 1457 1459 1461 1462 1464 1466 1469 1472 1474 1477 1478 1480 1481 1482 1484 1485 1487 1488 1489 1489 1490
1436 1433 1432 1431 1431 1431 1431 1431 1432 1433 1435 1436 1437 1439 1442 1444 1446 1448 1450 1453 1455 1457 1460 1463 1465 1468 1470 1471 1473 1476 1477 1479 1481 1482 1483 1484 1485 1486
1431 1428 1426 1425 1424 1424 1424 1424 1424 1425 1426 1427 1428 1430 1433 1435 1437 1439 1442 1444 1447 1450 1453 1455 1457 1460 1462 1465 1468 1470 1472 1474 1476 1477 1478 1479 1481 1482
1425 1422 1420 1419 1417 1416 1416 1416 1416 1416 1416 1418 1419 1421 1423 1425 1428 1430 1433 1436 1439 1442 1444 1447 1450 1454 1458 1461 1463 1464 1467 1469 1471 1472 1474 1475 1475 1476
1419 1416 1414 1412 1410 1409 1408 1408 1407 1407 1408 1408 1410 1411 1413 1416 1418 1421 1424 1427 1431 1434 1437 1441 1445 1448 1451 1453 1456 1458 1461 1464 1465 1467 1469 1470 1470 1471
1413 1410 1407 1405 1402 1401 1400 1399 1398 1398 1399 1400 1401 1402 1404 1406 1409 1412 1415 1419 1423 1426 1430 1434 1438 1441 1444 1447 1450 1453 1455 1458 1460 1462 1464 1465 1466 1467